Content
SEND FEEDBACK

Daily
Averages
Monthly
Summary
United States of America

ALVA - NORTH, OKLAHOMA


Home > North America > United States > Oklahoma
Elevation: 1290 feet     Latitude: 36 49N     Longitude: 098 39W

WEATHER
 
SELECT A DAY
Number of Records: 297,671;   Date Range: 2/12/01 - 8/28/14
 
SHARE

PRINT THIS DATA

[ ← Previous Day ]
WEATHER ALMANAC - JANUARY 23, 2013
[ Next Day → ]
[ °C ]   °F
Weather ElementAverageHighLow
Temperature38.5 °F55.4 °F (2:10 pm)21.2 °F (4:30 am)
Dewpoint25.7 °F32 °F (1:10 pm)17.6 °F (1:10 am)
Humidity62.3 %86 % (4:30 am)38 % (2:50 pm)
Barometer30.18 in30.26 in (11:50 pm)30.11 in (2:10 pm)
Wind Speed6.2 mph18.4 mph (10:10 pm)
Wind Gust23 mph (10:10 pm)
Weather ElementAverage
Visibility9.7 mi
Wind DirectionSSE (156.7 °)

Weather ElementTotal
Precipitation---
Heating Degree Days26.7 (Base 65)
Averaged from 67 records on January 23, 2013
WEATHER CONDITIONS BREAKOUT
WIND DIRECTION BREAKOUT
WEATHER BY HOUR - JANUARY 23, 2013
[ °C ]   °F
Local TimeTemperatureDewpointHumidityBarometerVisibilityWind DirectionWind SpeedGust SpeedPrecipitationEventsConditions
12:30 AM28.4 °F19.4 °F69 %30.23 in10.0 miNorth (350°)5.8 mphClear
12:50 AM28.4 °F19.4 °F69 %30.22 in10.0 miNorth (10°)5.8 mphClear
1:10 AM24.8 °F17.6 °F74 %30.21 in10.0 miNorth (350°)6.9 mphClear
1:30 AM23.0 °F17.6 °F80 %30.19 in10.0 miCalmClear
1:50 AM24.8 °F19.4 °F80 %30.20 in10.0 miNNW (340°)6.9 mphClear
2:10 AM26.6 °F19.4 °F74 %30.21 in10.0 miNorth (10°)8.1 mphClear
2:30 AM24.8 °F19.4 °F80 %30.21 in10.0 miNorth (360°)8.1 mphClear
2:50 AM24.8 °F19.4 °F80 %30.20 in10.0 miNorth (350°)4.6 mphClear
3:10 AM24.8 °F19.4 °F80 %30.20 in10.0 miNorth (350°)5.8 mphClear
3:30 AM24.8 °F17.6 °F74 %30.20 in10.0 miNorth (360°)5.8 mphClear
3:50 AM24.8 °F19.4 °F80 %30.20 in10.0 miNorth (360°)8.1 mphClear
4:10 AM24.8 °F19.4 °F80 %30.19 in10.0 miNNW (340°)5.8 mphClear
4:30 AM21.2 °F17.6 °F86 %30.19 in10.0 miCalmClear
4:50 AM21.2 °F17.6 °F86 %30.19 in10.0 miNW (310°)4.6 mphClear
5:10 AM23.0 °F17.6 °F80 %30.19 in9.0 miNNW (340°)3.5 mphClear
5:30 AM23.0 °F17.6 °F80 %30.19 in10.0 miNW (320°)4.6 mphClear
6:30 AM23.0 °F17.6 °F80 %30.19 in9.0 miNW (310°)4.6 mphClear
6:50 AM23.0 °F17.6 °F80 %30.19 in9.0 miNW (310°)4.6 mphClear
7:10 AM23.0 °F17.6 °F80 %30.19 in8.0 miNW (310°)5.8 mphClear
7:30 AM23.0 °F19.4 °F86 %30.19 in10.0 miNW (320°)4.6 mphClear
7:50 AM23.0 °F17.6 °F80 %30.20 in8.0 miNW (320°)5.8 mphClear
8:10 AM24.8 °F19.4 °F80 %30.20 in8.0 miCalmClear
8:30 AM26.6 °F21.2 °F80 %30.21 in7.0 miNW (310°)3.5 mphClear
9:10 AM30.2 °F23.0 °F75 %30.21 in8.0 miCalmClear
9:30 AM32.0 °F24.8 °F75 %30.21 in9.0 miWSW (240°)4.6 mphClear
9:50 AM35.6 °F24.8 °F65 %30.21 in10.0 miWNW (300°)3.5 mphClear
10:10 AM37.4 °F24.8 °F60 %30.22 in10.0 miWest (280°)3.5 mphClear
10:30 AM39.2 °F26.6 °F61 %30.22 in10.0 miWest (280°)3.5 mphClear
10:50 AM42.8 °F26.6 °F53 %30.22 in10.0 miWest (260°)3.5 mphClear
11:10 AM44.6 °F26.6 °F49 %30.22 in10.0 miCalmClear
11:30 AM46.4 °F26.6 °F46 %30.20 in10.0 miCalmClear
11:50 AM46.4 °F26.6 °F46 %30.20 in10.0 miSW (230°)3.5 mphClear
12:10 PM48.2 °F28.4 °F46 %30.18 in10.0 miCalmClear
12:30 PM50.0 °F28.4 °F43 %30.16 in10.0 miCalmClear
12:50 PM51.8 °F28.4 °F41 %30.15 in10.0 miWNW (290°)3.5 mphClear
1:10 PM53.6 °F32.0 °F44 %30.14 in10.0 miWest (260°)5.8 mphClear
1:30 PM53.6 °F32.0 °F44 %30.13 in10.0 miSW (220°)8.1 mphClear
1:50 PM53.6 °F32.0 °F44 %30.12 in10.0 miWSW (240°)6.9 mphClear
2:10 PM55.4 °F32.0 °F41 %30.11 in10.0 miSW (220°)8.1 mphClear
2:30 PM53.6 °F30.2 °F41 %30.11 in10.0 miCalmClear
2:50 PM55.4 °F30.2 °F38 %30.11 in10.0 miCalmClear
3:10 PM55.4 °F32.0 °F41 %30.12 in10.0 miCalmClear
3:30 PM55.4 °F32.0 °F41 %30.12 in10.0 miNorth (350°)3.5 mphClear
3:50 PM55.4 °F32.0 °F41 %30.12 in10.0 miNNE (30°)3.5 mphClear
4:10 PM55.4 °F32.0 °F41 %30.12 in10.0 miNE (40°)4.6 mphClear
4:30 PM53.6 °F32.0 °F44 %30.11 in10.0 miENE (70°)4.6 mphClear
4:50 PM53.6 °F32.0 °F44 %30.11 in10.0 miEast (90°)4.6 mphClear
5:10 PM53.6 °F32.0 °F44 %30.12 in9.0 miEast (100°)4.6 mphClear
5:30 PM50.0 °F32.0 °F50 %30.12 in10.0 miSE (130°)5.8 mphClear
5:50 PM48.2 °F32.0 °F54 %30.12 in8.0 miEast (90°)5.8 mphClear
6:10 PM48.2 °F32.0 °F54 %30.14 in10.0 miENE (70°)6.9 mphClear
6:30 PM44.6 °F32.0 °F61 %30.15 in10.0 miNE (50°)5.8 mphClear
6:50 PM46.4 °F32.0 °F57 %30.15 in10.0 miNE (50°)6.9 mphClear
7:10 PM44.6 °F32.0 °F61 %30.16 in10.0 miNE (50°)8.1 mphClear
7:50 PM44.6 °F32.0 °F61 %30.17 in10.0 miNE (40°)9.2 mphClear
8:10 PM42.8 °F32.0 °F66 %30.18 in10.0 miNE (50°)10.4 mphClear
8:30 PM42.8 °F32.0 °F66 %30.18 in10.0 miNE (40°)9.2 mphPartly Cloudy
8:50 PM41.0 °F32.0 °F70 %30.18 in10.0 miNE (50°)10.4 mphPartly Cloudy
9:10 PM41.0 °F32.0 °F70 %30.19 in10.0 miNE (50°)9.2 mphClear
9:30 PM41.0 °F32.0 °F70 %30.21 in10.0 miNE (40°)9.2 mphClear
9:50 PM41.0 °F32.0 °F70 %30.22 in10.0 miNE (40°)16.1 mphPartly Cloudy
10:10 PM41.0 °F26.6 °F57 %30.22 in10.0 miNE (40°)18.4 mph23.0 mphScattered Clouds
10:30 PM39.2 °F24.8 °F56 %30.24 in10.0 miNNE (30°)18.4 mphMostly Cloudy
10:50 PM39.2 °F24.8 °F56 %30.24 in10.0 miNNE (30°)17.3 mph23.0 mphOvercast
11:10 PM39.2 °F24.8 °F56 %30.25 in10.0 miNE (40°)17.3 mphOvercast
11:30 PM37.4 °F23.0 °F56 %30.25 in10.0 miNE (40°)18.4 mph21.9 mphOvercast
11:50 PM37.4 °F23.0 °F56 %30.26 in10.0 miNE (40°)18.4 mphOvercast
Hourly data recorded from KAVK, located miles away from Alva - North, Oklahoma







STORIES FROM OUR PARTNERS